Goderich, Ontario

10:17 AM EDT on October 18, 2017 (GMT -0400)
Goderich

Weather History for CWGD - November, 2012

Change the Weather History Date:

Saturday, November 17, 2012

  Actual Average (KP58) Record (KP58)
Temperature  
Mean Temperature 38 °F -  
Max Temperature 48 °F 43 °F 63 °F (2013)
Min Temperature 27 °F 34 °F 19 °F (2014)
Degree Days  
Heating Degree Days 28    
Moisture  
Dew Point 35 °F    
Average Humidity 83    
Maximum Humidity 100    
Minimum Humidity 62    
Precipitation  
Precipitation 0.00 in - - ()
Sea Level Pressure  
Sea Level Pressure 30.58 in    
Wind  
Wind Speed 4 mph ()    
Max Wind Speed 8 mph    
Max Gust Speed -    
Averages and records for this station are not official NWS values.
T = Trace of Precipitation, MM = Missing Value Source: Averaged Metar Reports

Daily Weather History Graph

Daily Weather History Graph

Search for Another Location

Airport or City:

Trip Planner

Search our weather history database for the weather conditions in past years. The results will help you decide how hot, cold, wet, or windy it might be!

Date:

Astronomy

Nov. 17, 2012 Rise Set
Actual Time 7:24 AM EST 4:59 PM EST
Civil Twilight 6:53 AM EST 5:30 PM EST
Nautical Twilight 6:18 AM EST 6:05 PM EST
Astronomical Twilight 5:44 AM EST 6:39 PM EST
Moon 11:08 AM EST (11/17) 9:07 PM EST (11/17)
Length of Visible Light 10h 37m
Length of Day
9h 34m
Waxing Crescent, 20% of the Moon is Illuminated
Nov 17
Waxing Crescent
Nov 20
First Quarter
Nov 28
Full
Dec 6
Last Quarter
Dec 13
New

Hourly Weather History & Observations

Time (EST) Temp. Windchill Dew Point Humidity Pressure Visibility Wind Dir Wind Speed Gust Speed Precip Events Conditions
12:00 AM - - - N/A% 30.52 in - East 2.3 mph - N/A   Unknown
1:00 AM 28 °F - - % 30.52 in - East 2.3 mph - -  
1:00 AM - - - N/A% 30.52 in - East 2.3 mph - N/A   Unknown
2:00 AM 27.7 °F - 27.5 °F 99% 30.53 in - East 2.3 mph - N/A   Unknown
3:00 AM 28.8 °F - 28.8 °F 100% 30.55 in - East 1.2 mph - N/A   Unknown
4:00 AM - - - N/A% 30.55 in - ESE 2.3 mph - N/A   Unknown
5:00 AM - - - N/A% 30.56 in - East 3.5 mph - N/A   Unknown
6:00 AM 35.2 °F 31.2 °F 34.3 °F 97% 30.57 in - SE 4.6 mph - N/A   Unknown
7:00 AM 36 °F - 35 °F 92% 30.58 in - SE 5.8 mph - -  
7:00 AM 36.0 °F 31.1 °F 34.5 °F 94% 30.58 in - SE 5.8 mph - N/A   Unknown
8:00 AM 35.4 °F 32.6 °F 31.5 °F 85% 30.60 in - ESE 3.5 mph - N/A   Unknown
9:00 AM 37.6 °F 35.1 °F 36.7 °F 97% 30.61 in - ESE 3.5 mph - N/A   Unknown
10:00 AM 41.4 °F 38.4 °F 37.2 °F 85% 30.61 in - ESE 4.6 mph - N/A   Unknown
11:00 AM 46.8 °F - 37.9 °F 71% 30.62 in - South 6.9 mph - N/A   Unknown
12:00 PM 48.2 °F - 37.9 °F 68% 30.60 in - SSE 8.1 mph - N/A   Unknown
1:00 PM 48 °F - 39 °F 62% 30.59 in - SSW 6.9 mph - -  
1:00 PM 47.8 °F - 39.0 °F 71% 30.59 in - SSW 6.9 mph - N/A   Unknown
2:00 PM 46.9 °F - 39.6 °F 76% 30.59 in - SSW 8.1 mph - N/A   Unknown
3:00 PM 46.8 °F - 39.7 °F 77% 30.58 in - SW 5.8 mph - N/A   Unknown
4:00 PM 46.0 °F 43.1 °F 37.8 °F 73% 30.59 in - SSW 5.8 mph - N/A   Unknown
5:00 PM 44.4 °F 42.9 °F 36.9 °F 75% 30.58 in - South 3.5 mph - N/A   Unknown
6:00 PM 42.4 °F 40.7 °F 35.8 °F 77% 30.58 in - SSE 3.5 mph - N/A   Unknown
7:00 PM 35 °F - 31 °F 79% 30.58 in - SSE 3.5 mph - -  
7:00 PM 34.7 °F 31.8 °F 30.9 °F 86% 30.58 in - SSE 3.5 mph - N/A   Unknown
8:00 PM - - - N/A% 30.58 in - SE 3.5 mph - N/A   Unknown
9:00 PM 37.9 °F 33.5 °F - N/A% 30.58 in - SE 5.8 mph - N/A   Unknown
10:00 PM 37.2 °F 32.6 °F 33.3 °F 86% 30.58 in - SE 5.8 mph - N/A   Unknown
11:00 PM 37.2 °F 32.6 °F 33.6 °F 87% 30.58 in - SE 5.8 mph - N/A   Unknown